ISS 1 25544U 98067A 10146.15649465 .00016305 00000-0 11438-3 0 2226 2 25544 51.6483 343.6053 0009847 357.0077 105.5681 15.74313103660006 STS 132 1 36572U 10019A 10146.09208567 .00021156 00000-0 14798-3 0 395 2 36572 51.6472 343.9433 0017439 342.8176 112.0026 15.74024313 1793